Tracking 29892 objects as of 21-Nov-2024
HD Live streaming from Space Station
objects crossing your sky now

INTELSAT 3-F8

Track INTELSAT 3-F8 now!
INTELSAT 3-F8 is classified as:


NORAD ID: 4478
Int'l Code: 1970-055A
Perigee: 33,933.5 km
Apogee: 36,555.4 km
Inclination: 4.0 °
Period: 1,408.1 minutes
Semi major axis: 41615 km
RCS: 2.5127 m2 (large)
Launch date: July 23, 1970
Source: International Telecommunications Satellite Organization (ITSO)
Launch site: AIR FORCE EASTERN TEST RANGE (AFETR)
Your satellite tracking list
Your tracking list is empty




NASA's NSSDC Master Catalog

Two Line Element Set (TLE):
1 04478U 70055A   24325.61903875  .00000009  00000-0  00000-0 0  9994
2 04478   4.0458  75.3740 0315021  98.5857 302.4689  1.02263557116962
Source of the keplerian elements: AFSPC